Wind_Speed
11 13 15 17 18 19 19 18 18 17 17 16 16 16 15 16 17 18 19 19 18 19 19 20 20 21 22 23 23 23 22 21 21 20 19 17 16 15 14 13 12 11 10 10
10 12 14 15 17 19 19 19 18 17 16 16 15 15 15 16 16 17 18 18 19 18 18 19 20 21 21 22 22 22 22 22 22 20 19 18 18 16 15 14 14 14 13 12
9 11 12 14 16 18 19 19 19 18 16 16 16 15 15 15 16 17 18 18 18 18 18 19 19 20 21 22 22 22 22 22 22 22 20 20 19 17 17 17 16 16 15 15
9 10 12 14 16 17 18 18 19 18 17 16 16 15 14 14 16 17 18 18 18 18 18 18 19 20 21 21 22 22 23 23 23 23 22 21 20 19 19 19 18 18 18 17
9 10 11 12 14 15 16 17 18 18 18 18 17 16 14 14 14 16 17 17 18 18 18 18 19 20 21 21 22 23 24 24 24 24 24 23 22 21 21 21 20 20 20 19
10 11 11 12 13 13 15 15 17 18 18 18 17 16 15 14 14 14 15 16 16 17 17 18 19 19 20 21 22 23 24 25 25 25 24 24 24 23 23 23 23 22 21 21
11 12 12 12 13 13 13 14 16 16 17 18 18 17 16 15 14 14 14 15 16 16 16 17 18 18 19 20 21 23 24 25 25 26 26 25 25 24 24 24 24 24 23 23
13 13 12 13 13 13 13 13 14 15 16 17 17 17 16 15 14 14 14 14 15 15 15 15 16 17 18 20 21 22 24 25 25 26 27 27 26 25 25 25 25 25 25 25
15 15 15 15 15 14 14 14 13 13 14 15 16 16 16 15 14 14 14 13 13 13 14 14 15 16 17 18 20 21 23 24 25 26 27 27 27 26 26 25 25 26 26 26
18 18 17 17 17 16 16 15 14 14 13 13 14 14 15 15 14 14 14 13 13 12 12 13 13 14 15 16 18 19 21 22 24 25 26 27 27 27 26 25 25 26 27 27
20 20 20 19 18 18 18 17 17 16 15 14 13 13 13 13 14 13 13 13 13 12 11 11 12 13 14 15 16 17 19 20 22 23 24 26 27 27 27 26 25 26 27 27
22 23 22 21 20 20 20 19 19 18 17 16 15 14 14 13 13 13 13 13 13 12 12 11 11 12 13 14 15 16 17 18 20 21 23 24 25 26 27 27 26 25 26 27
26 25 25 24 23 22 22 22 21 21 20 19 18 17 16 15 14 13 13 13 12 12 12 12 12 12 12 13 14 14 15 16 17 19 20 22 23 24 26 26 26 25 25 25
30 28 27 27 26 25 25 25 24 23 23 21 20 19 18 17 17 15 14 14 13 13 13 13 13 13 13 13 13 13 14 14 15 16 17 19 20 21 23 24 25 25 24 23
34 32 30 29 29 29 29 28 27 27 26 24 23 22 21 20 19 18 17 16 15 14 14 13 13 13 13 13 13 13 13 13 13 14 15 16 17 18 19 21 22 23 24 23
38 37 35 34 33 32 32 31 31 30 29 27 26 25 24 22 22 21 20 19 17 17 16 15 14 14 13 13 13 12 12 12 12 12 12 13 14 14 15 17 18 20 21 21
42 42 41 39 38 37 35 34 34 33 32 30 30 29 26 25 24 24 23 22 20 19 18 17 16 15 14 14 13 13 12 12 12 11 11 11 11 12 12 13 14 15 17 18
47 47 46 45 44 42 41 39 38 37 36 35 34 32 30 29 27 26 26 24 23 22 21 20 19 17 16 16 15 14 13 12 12 11 11 10 10 10 10 10 10 11 12 13
51 52 52 51 50 48 46 45 43 42 41 39 38 36 34 33 31 30 29 27 26 25 24 23 21 20 19 18 17 16 15 14 13 12 11 11 10 9 9 8 8 8 9 9
55 56 57 57 56 55 53 51 49 48 46 45 43 41 39 37 36 35 34 31 29 28 27 25 24 23 22 21 20 18 17 16 15 14 13 12 11 10 9 9 8 7 7 7
57 58 59 60 61 60 59 58 56 54 52 50 49 47 44 42 41 40 38 34 32 33 31 29 27 26 25 23 22 21 20 19 18 17 16 15 14 13 12 10 10 9 8 8
59 59 61 62 63 64 64 63 62 60 58 56 54 53 51 48 46 45 42 39 38 37 35 32 31 30 28 27 25 24 23 22 21 20 19 18 17 16 15 14 13 12 11 10
61 61 61 62 63 65 66 67 67 66 64 62 60 58 56 54 52 50 48 45 43 42 40 37 35 34 33 31 29 28 26 25 24 23 22 21 20 19 18 17 17 16 15 14
64 65 64 64 64 65 66 68 70 70 68 67 65 63 61 59 58 56 53 51 49 47 44 42 40 39 38 35 33 32 31 29 28 27 26 25 24 23 22 21 20 20 19 18
67 67 67 67 66 65 65 66 68 70 71 70 69 68 66 64 62 61 59 57 55 52 49 47 45 44 43 40 38 37 35 34 33 31 30 29 28 27 26 25 24 24 23 22
69 70 70 69 69 67 66 65 65 66 69 71 72 71 70 68 66 65 63 62 60 57 55 54 52 50 48 46 44 42 41 39 37 36 34 33 32 31 30 29 28 28 27 27
69 70 70 70 70 69 68 66 64 63 64 67 70 72 73 72 70 69 67 66 65 63 61 60 58 56 54 52 50 48 46 44 42 41 40 38 37 36 34 34 33 32 31 31
Wind_Direction
42 37 33 29 27 26 25 24 24 25 26 26 27 26 25 24 22 20 19 20 22 23 23 24 25 24 24 25 25 25 25 24 24 25 25 24 22 18 14 9 2 351 335 317
36 34 31 27 26 26 26 25 23 23 23 23 22 21 21 20 20 19 19 21 21 21 21 22 22 22 22 22 23 24 24 22 21 20 20 19 17 15 12 8 3 356 348 334
27 28 27 26 24 23 23 23 23 22 20 19 18 16 17 19 19 19 20 21 21 20 20 19 19 19 20 20 20 20 19 18 17 17 15 14 12 10 7 3 358 354 349 340
11 15 18 19 18 17 18 19 19 20 19 17 15 14 14 15 17 17 19 20 20 20 20 19 19 19 18 18 18 17 16 15 14 14 13 11 9 7 5 1 358 354 350 344
353 360 6 8 8 10 11 13 15 16 15 15 14 13 12 9 10 12 15 17 19 20 20 20 19 19 19 18 18 17 16 15 14 13 12 11 9 7 5 3 360 356 353 348
335 340 348 355 358 2 5 6 9 11 11 11 10 10 9 7 6 7 11 14 16 18 19 19 20 20 20 20 20 20 19 18 16 15 13 11 10 9 7 6 4 2 358 354
318 324 332 339 342 348 352 357 1 3 5 7 7 7 6 5 4 5 6 10 13 14 16 18 20 20 20 21 21 20 19 18 17 16 14 13 12 11 10 9 8 7 5 2
304 309 317 320 326 331 336 342 348 352 355 358 1 3 3 1 1 1 2 5 8 11 12 14 16 18 20 21 21 20 19 18 17 16 16 15 15 14 13 12 12 12 10 9
295 300 304 307 311 316 320 325 331 337 342 348 353 357 358 359 358 357 357 359 2 5 7 9 12 15 17 18 19 19 19 19 18 18 17 17 17 16 16 16 16 16 16 16
286 290 294 297 300 304 307 310 314 318 323 330 338 345 351 353 353 352 351 352 353 355 359 2 5 8 10 12 13 15 17 18 19 19 19 19 19 19 19 19 20 20 21 22
279 281 284 287 292 295 297 300 302 304 307 311 317 325 332 340 344 345 346 347 347 347 347 350 354 359 2 4 7 11 15 17 18 19 20 21 21 22 22 23 24 24 26 28
274 276 278 280 282 285 288 291 293 295 296 298 301 305 312 319 328 334 337 338 340 341 340 339 340 344 350 355 360 4 8 13 16 17 19 20 22 23 24 25 27 28 30 32
271 271 273 275 276 278 280 283 285 287 288 289 291 293 296 301 307 314 321 327 329 332 334 334 333 332 335 341 347 353 359 5 9 13 16 19 21 23 25 28 29 31 33 35
270 271 272 273 275 275 276 277 279 281 281 282 284 285 287 290 293 297 303 309 314 318 322 325 327 327 326 329 334 339 346 353 360 6 11 15 19 22 25 28 30 33 36 37
273 274 274 273 273 273 273 274 275 276 277 277 278 279 280 282 285 287 290 294 299 304 308 312 316 320 323 323 325 328 332 339 347 355 3 9 14 19 23 27 30 33 37 40
272 273 273 273 272 272 272 272 273 274 274 274 273 273 274 276 278 280 282 285 288 292 296 300 304 308 312 317 320 322 324 328 333 340 348 358 6 12 18 23 28 32 36 40
267 269 270 271 271 270 270 270 270 271 271 271 270 269 270 270 271 273 275 277 280 283 286 289 292 296 299 303 308 311 315 318 323 328 333 341 351 0 8 15 21 27 32 37
265 266 267 267 268 268 268 268 268 268 268 268 267 267 267 266 266 267 269 271 273 276 277 279 282 286 289 291 294 299 302 305 309 313 319 324 331 340 351 0 9 17 24 31
262 263 264 264 265 265 265 265 265 265 265 265 265 265 265 264 264 264 264 266 268 270 271 273 275 277 279 282 285 287 290 292 295 298 302 306 311 317 325 335 345 357 6 15
262 261 262 262 262 262 262 262 262 262 262 262 262 262 262 262 261 261 261 262 263 265 266 268 269 271 273 274 277 279 281 282 284 285 288 291 294 297 302 308 315 322 332 342
262 260 260 260 260 260 260 259 259 259 259 259 259 259 259 259 259 259 259 259 259 260 261 262 264 266 267 268 270 272 273 275 276 277 278 279 281 283 285 288 291 296 300 305
265 262 260 258 258 258 258 258 258 257 257 257 257 257 257 256 256 257 257 256 255 256 257 258 259 261 262 263 265 266 267 269 270 271 272 273 274 275 276 277 278 279 281 283
270 268 265 262 259 257 256 256 255 255 255 254 254 254 254 254 254 254 254 253 253 253 254 255 256 257 259 260 261 262 263 264 265 266 267 269 270 271 272 272 273 273 273 274
271 270 269 267 263 260 257 254 253 253 252 252 252 251 251 251 251 252 252 251 252 252 252 253 253 254 256 256 257 258 259 259 260 261 263 264 266 267 268 269 270 271 271 271
272 271 270 269 267 264 260 257 255 252 250 250 249 249 249 248 248 249 249 250 250 250 250 250 251 251 253 254 255 255 256 256 257 258 259 261 262 264 265 266 268 269 270 271
273 272 272 270 269 267 265 262 258 255 251 249 247 246 246 246 246 247 247 248 248 249 249 249 249 250 251 252 253 253 254 255 255 256 257 258 259 260 262 263 264 266 268 269
274 273 273 272 271 269 267 265 262 258 254 251 248 246 245 244 244 245 245 246 246 246 247 248 249 249 250 250 251 252 253 254 254 255 256 256 257 258 259 261 262 263 265 266
Height
5891 5889 5887 5885 5882 5879 5875 5872 5869 5866 5862 5859 5856 5853 5850 5847 5844 5841 5837 5834 5830 5827 5823 5819 5815 5811 5807 5803 5799 5794 5790 5786 5782 5778 5774 5771 5768 5765 5762 5760 5758 5756 5754 5753
5892 5890 5888 5886 5883 5880 5877 5874 5871 5868 5865 5861 5858 5855 5852 5849 5846 5843 5840 5836 5832 5829 5826 5822 5818 5814 5810 5806 5802 5797 5793 5789 5785 5781 5777 5774 5770 5767 5764 5761 5759 5756 5754 5751
5893 5891 5890 5888 5885 5882 5879 5876 5873 5870 5867 5863 5860 5857 5854 5851 5848 5845 5842 5838 5835 5831 5828 5824 5821 5817 5813 5809 5805 5800 5796 5792 5787 5783 5779 5776 5772 5769 5765 5762 5759 5756 5753 5750
5894 5893 5890 5890 5886 5883 5880 5878 5874 5871 5868 5865 5862 5859 5856 5853 5850 5847 5844 5840 5837 5834 5830 5827 5823 5819 5815 5811 5807 5803 5799 5794 5790 5785 5781 5777 5773 5769 5766 5762 5758 5755 5751 5747
5894 5892 5891 5889 5887 5884 5882 5879 5876 5873 5869 5866 5863 5860 5857 5855 5852 5849 5846 5843 5839 5836 5832 5829 5825 5822 5818 5814 5810 5806 5801 5797 5792 5788 5783 5779 5774 5770 5766 5762 5757 5753 5749 5745
5893 5892 5890 5890 5887 5884 5883 5880 5877 5873 5870 5867 5865 5862 5860 5856 5853 5850 5848 5844 5841 5838 5835 5831 5828 5824 5821 5817 5813 5808 5804 5799 5794 5790 5785 5780 5776 5771 5766 5762 5757 5752 5747 5742
5891 5890 5890 5888 5886 5884 5883 5881 5877 5874 5871 5868 5865 5863 5860 5857 5854 5851 5849 5846 5843 5840 5837 5833 5830 5827 5823 5819 5815 5811 5806 5802 5797 5792 5787 5782 5777 5772 5768 5763 5757 5752 5747 5741
5890 5889 5890 5886 5884 5883 5882 5879 5876 5874 5872 5869 5866 5863 5860 5857 5855 5852 5850 5847 5844 5842 5839 5836 5832 5829 5826 5822 5818 5813 5809 5805 5800 5795 5790 5785 5780 5774 5769 5764 5759 5753 5748 5742
5888 5888 5886 5884 5882 5881 5879 5877 5875 5873 5871 5869 5866 5864 5861 5858 5855 5853 5851 5848 5846 5843 5840 5837 5834 5831 5828 5824 5820 5816 5812 5808 5803 5798 5793 5788 5782 5777 5772 5766 5761 5756 5750 5743
5883 5883 5882 5881 5880 5879 5877 5875 5874 5872 5870 5868 5866 5863 5861 5858 5856 5853 5851 5849 5846 5844 5841 5839 5836 5833 5830 5826 5823 5819 5815 5811 5806 5801 5796 5791 5786 5780 5775 5769 5764 5759 5753 5747
5879 5878 5878 5877 5876 5875 5874 5873 5871 5870 5868 5866 5864 5862 5860 5858 5855 5853 5851 5848 5846 5844 5841 5839 5837 5834 5831 5828 5825 5821 5817 5813 5809 5804 5799 5794 5789 5784 5778 5773 5768 5762 5757 5751
5874 5873 5873 5872 5872 5871 5870 5869 5868 5866 5865 5863 5862 5860 5858 5856 5854 5852 5850 5848 5846 5843 5841 5839 5837 5834 5832 5829 5826 5823 5819 5815 5811 5807 5802 5798 5793 5788 5782 5777 5772 5767 5762 5757
5866 5866 5866 5866 5866 5865 5865 5864 5863 5862 5861 5860 5858 5857 5855 5854 5852 5850 5848 5846 5844 5842 5840 5838 5836 5834 5831 5829 5826 5823 5820 5817 5813 5809 5805 5801 5796 5792 5787 5782 5776 5772 5767 5762
5858 5860 5860 5860 5860 5859 5859 5858 5857 5856 5856 5855 5854 5853 5852 5850 5849 5848 5846 5844 5842 5841 5839 5837 5834 5832 5830 5828 5826 5823 5821 5818 5814 5811 5807 5804 5800 5795 5791 5786 5781 5777 5772 5768
5851 5852 5853 5853 5853 5852 5852 5851 5851 5850 5850 5849 5848 5847 5847 5846 5845 5844 5842 5841 5839 5838 5836 5834 5832 5830 5828 5826 5824 5822 5820 5817 5815 5812 5809 5806 5802 5798 5795 5791 5787 5782 5778 5774
5843 5843 5844 5845 5845 5845 5845 5844 5844 5843 5843 5843 5842 5841 5840 5840 5839 5838 5837 5836 5835 5834 5833 5831 5829 5828 5826 5824 5822 5820 5818 5816 5814 5812 5809 5807 5804 5801 5798 5794 5791 5787 5784 5780
5833 5833 5834 5834 5835 5835 5836 5836 5835 5835 5835 5835 5834 5834 5833 5833 5832 5832 5831 5830 5830 5829 5828 5827 5826 5824 5823 5821 5820 5818 5816 5814 5813 5811 5809 5807 5804 5802 5799 5797 5794 5791 5788 5785
5821 5821 5821 5822 5823 5824 5825 5825 5825 5825 5826 5825 5825 5825 5825 5825 5825 5824 5824 5824 5823 5823 5822 5821 5821 5820 5818 5817 5816 5815 5813 5812 5810 5809 5807 5805 5804 5802 5800 5798 5796 5793 5791 5788
5806 5806 5807 5808 5809 5810 5811 5812 5813 5814 5814 5814 5815 5816 5816 5816 5816 5816 5815 5816 5816 5815 5815 5815 5814 5814 5813 5812 5811 5810 5809 5808 5807 5806 5804 5803 5802 5801 5799 5798 5796 5794 5792 5791
5789 5790 5790 5791 5792 5794 5795 5797 5798 5800 5801 5802 5802 5804 5805 5806 5805 5805 5806 5807 5807 5807 5807 5807 5807 5807 5806 5806 5805 5805 5804 5803 5803 5802 5801 5800 5799 5798 5797 5796 5795 5794 5792 5791
5770 5771 5772 5773 5774 5775 5777 5779 5781 5783 5785 5787 5788 5790 5792 5793 5793 5794 5795 5797 5797 5796 5797 5797 5798 5798 5798 5798 5798 5798 5798 5798 5797 5797 5796 5795 5795 5794 5794 5793 5792 5791 5790 5790
5748 5750 5751 5753 5754 5756 5758 5759 5762 5765 5767 5770 5772 5774 5776 5778 5779 5781 5783 5785 5785 5785 5786 5787 5788 5788 5789 5790 5790 5790 5791 5791 5791 5791 5790 5790 5790 5789 5789 5788 5788 5788 5787 5787
5727 5728 5730 5731 5733 5735 5737 5739 5741 5744 5747 5750 5753 5756 5759 5761 5763 5766 5769 5771 5771 5773 5774 5776 5776 5777 5778 5779 5781 5781 5782 5783 5783 5783 5783 5783 5783 5783 5783 5783 5783 5783 5782 5782
5706 5706 5707 5708 5709 5712 5714 5716 5718 5721 5725 5728 5732 5735 5739 5742 5745 5749 5752 5754 5756 5759 5761 5763 5764 5765 5766 5768 5770 5771 5772 5773 5774 5775 5775 5776 5776 5776 5776 5776 5776 5776 5776 5776
5685 5685 5684 5684 5685 5687 5689 5692 5695 5698 5702 5705 5709 5713 5717 5721 5725 5729 5733 5736 5740 5743 5746 5748 5750 5751 5753 5755 5757 5759 5761 5762 5764 5765 5766 5767 5767 5768 5768 5769 5769 5769 5769 5769
5663 5662 5661 5661 5661 5663 5665 5667 5670 5673 5677 5681 5684 5689 5694 5699 5704 5709 5713 5717 5721 5725 5729 5731 5734 5736 5739 5741 5743 5745 5747 5750 5752 5753 5755 5756 5757 5758 5759 5760 5760 5760 5761 5761
5641 5639 5638 5638 5638 5639 5641 5643 5646 5649 5651 5655 5659 5664 5669 5676 5681 5686 5691 5696 5700 5705 5709 5713 5716 5720 5722 5725 5728 5730 5733 5736 5738 5740 5742 5744 5745 5747 5748 5749 5750 5750 5751 5751